Location: Marsån
(66.4167°N, 22.2833°E)
Time: 10:17:26
(UTC+00:00)

Cosmos 2184 Rocket - Pass Details

Date: 24 February 2024
Orbit: 958 x 1002 km, 82.9° (Epoch: 15 April)

Event Time Altitude Azimuth Distance (km) Brightness Sun altitude
Rises 21:34:48 0° 339° (NNW) 3,732 8.2 -31.8°
Reaches altitude 10° 21:37:23 10° 342° (NNW) 2,774 7.2 -31.8°
Enters shadow 21:43:10 66° 31° (NNE) 1,075 4.2 -32.0°
